Temperature
22 20 19 20 20 21 21 21 20 21 22 21 20 19 19 20 20 19 19 19 19 19 19 19 19 18 18 18 18 18 17 17 17 17 16 16 16 16 16 16 15 15 15 15
19 20 21 22 22 22 21 21 20 21 21 21 19 19 19 19 20 20 20 19 19 19 19 19 18 18 18 18 18 17 17 17 17 16 16 16 16 16 16 15 15 15 15 15
20 21 22 22 22 22 21 21 21 21 21 20 20 19 19 19 20 20 20 20 20 19 19 19 18 18 18 18 17 17 17 17 16 16 16 16 16 15 15 15 15 15 15 15
21 22 22 22 22 22 21 22 22 22 19 18 19 17 18 18 18 19 19 19 19 19 19 18 18 18 18 18 17 17 17 17 16 16 16 16 15 15 15 15 15 15 15 15
21 22 22 22 22 22 21 22 22 21 20 18 18 17 17 18 18 18 18 19 19 19 19 18 18 18 18 17 17 17 16 16 16 16 16 16 15 15 15 15 15 15 15 14
21 22 22 22 23 23 22 21 20 18 17 18 18 18 17 17 18 18 18 19 19 19 19 18 18 18 18 17 17 17 16 16 16 16 16 15 15 15 15 14 14 14 14 14
21 21 22 23 22 22 20 18 17 18 16 17 18 18 17 18 19 19 18 18 19 19 18 18 18 18 17 17 17 17 16 16 16 16 15 15 15 15 14 14 14 14 14 14
19 19 21 22 21 21 20 18 17 18 17 17 18 17 17 19 19 20 19 19 18 18 18 18 18 18 17 17 17 16 16 16 16 15 15 15 15 14 14 14 14 14 14 14
18 19 21 22 22 21 20 19 18 17 17 17 17 17 18 19 18 18 18 18 18 18 18 18 17 17 17 17 17 16 16 16 15 15 15 15 14 14 14 14 14 14 14 14
19 19 20 21 22 21 21 19 16 17 17 17 17 17 17 18 18 17 17 17 18 18 18 18 17 17 17 17 16 16 16 15 15 15 15 14 14 14 14 14 14 14 14 13
18 18 19 19 20 20 20 19 17 15 16 16 16 17 18 17 18 17 17 17 17 18 18 17 17 17 17 16 16 16 15 15 15 15 15 14 14 14 14 14 13 13 13 13
17 16 17 18 19 20 20 19 17 17 16 15 15 16 18 17 18 18 17 17 17 17 18 17 17 16 16 16 16 15 15 15 15 15 14 14 14 14 14 13 13 13 13 13
17 15 16 17 18 19 19 19 18 16 15 15 15 16 17 17 17 17 17 17 17 17 17 17 16 16 16 16 16 15 15 15 15 14 14 14 14 13 13 13 13 13 13 13
17 15 15 17 17 17 18 19 19 17 15 15 16 16 17 16 16 16 17 17 17 17 16 16 16 16 15 15 15 15 15 15 14 14 14 14 13 13 13 13 13 12 12 12
16 16 16 17 17 18 18 18 18 18 16 16 16 16 16 16 16 16 16 17 16 16 16 16 16 15 15 15 15 15 15 14 14 14 13 13 13 13 13 12 12 12 12 12
15 16 16 16 17 17 17 17 18 18 17 16 16 16 16 16 16 16 16 16 16 16 15 15 15 15 15 15 14 14 14 14 14 14 13 13 13 12 12 12 12 12 12 12
14 15 15 15 16 17 16 17 17 17 17 16 16 16 15 15 15 16 16 16 16 16 15 15 15 15 15 14 14 14 14 14 13 13 13 13 12 12 12 12 12 11 11 11
14 14 12 13 15 16 15 16 17 17 16 16 16 15 16 16 16 16 16 16 16 16 15 15 15 15 14 14 14 14 14 13 13 13 13 12 12 12 12 11 11 11 11 11
13 13 13 12 14 14 15 16 17 16 16 15 15 15 15 16 15 15 16 16 16 16 16 15 15 15 14 14 14 14 14 13 13 13 12 12 12 12 11 11 11 11 11 11
13 12 12 12 13 14 15 16 17 16 15 15 15 14 14 14 12 13 15 15 16 16 15 15 15 14 14 14 14 13 13 13 13 12 12 12 12 11 11 11 11 10 10 10
13 12 12 12 12 13 14 15 16 15 14 15 15 15 14 14 14 15 15 15 15 15 15 15 14 14 14 14 13 13 13 12 12 12 12 12 11 11 11 11 10 10 10 10
12 11 11 11 12 12 14 15 14 14 15 15 15 15 15 15 15 15 15 15 15 15 14 14 14 14 13 13 13 13 12 12 12 12 12 11 11 11 10 10 10 10 10 9
11 12 11 11 12 13 14 15 15 15 15 15 15 15 15 15 14 14 14 14 14 14 14 14 13 13 13 13 13 12 12 12 12 11 11 11 11 10 10 10 10 10 9 9
11 11 11 11 11 13 14 15 15 15 15 15 15 15 15 14 14 14 14 14 13 13 13 13 13 13 13 12 12 12 12 11 11 11 11 11 10 10 10 10 9 9 9 9
11 11 10 10 11 12 13 14 14 14 14 14 14 14 14 14 14 13 13 13 13 13 13 13 12 12 12 12 12 12 11 11 11 11 10 10 10 10 9 9 9 9 8 8
10 10 10 10 12 11 13 13 14 14 14 14 14 13 13 13 13 13 13 13 12 12 12 12 12 12 12 11 11 11 11 11 10 10 10 10 9 9 9 9 8 8 8 8
Wind_Speed
0 3 2 6 6 6 4 3 3 4 4 4 5 5 6 6 7 8 7 7 8 8 6 5 5 5 5 4 4 4 4 3 4 3 2 2 1 1 1 2 3 4 5 6
3 3 7 5 3 2 3 3 3 3 2 3 4 5 5 6 8 10 10 9 9 7 4 5 5 5 6 6 5 4 4 4 4 3 2 2 2 1 1 1 3 4 5 5
5 6 4 2 2 2 2 5 5 4 1 1 2 3 3 3 4 5 7 8 9 10 9 8 7 6 5 5 5 5 4 4 4 4 3 3 3 2 2 2 1 1 4 5
4 5 2 1 3 4 4 6 5 4 3 3 3 2 5 4 3 4 5 6 8 8 8 8 8 6 5 5 4 5 5 4 4 5 5 5 3 1 1 1 0 0 2 4
4 3 2 3 6 5 6 5 4 3 4 1 0 3 5 2 3 6 6 7 8 9 10 9 8 8 5 4 4 4 4 4 4 4 5 5 3 1 1 1 1 1 1 2
5 3 4 5 5 4 2 2 4 4 4 1 5 5 5 4 7 6 6 7 8 8 8 7 6 6 4 3 3 4 4 3 3 4 4 4 4 3 2 1 1 0 0 0
4 5 3 2 1 2 4 5 3 4 2 4 2 3 5 6 6 8 9 8 7 7 7 7 7 6 5 5 4 3 4 3 3 4 4 4 4 4 4 2 2 1 0 1
1 5 4 2 4 4 3 8 6 4 4 3 2 1 5 5 2 5 7 8 7 7 7 7 8 7 6 6 5 4 4 3 4 4 3 3 3 3 2 3 2 2 1 2
3 5 5 3 1 5 3 4 7 6 2 0 2 2 4 1 2 3 5 7 7 7 7 7 7 7 7 6 6 5 4 3 4 4 3 3 3 2 3 2 2 1 1 1
4 3 5 3 3 2 4 5 5 4 3 2 2 3 4 4 3 3 5 6 7 7 7 7 7 7 6 5 4 4 4 5 4 3 3 3 3 2 2 2 1 1 1 1
3 2 4 2 1 3 1 2 4 4 4 5 3 5 4 6 6 6 6 6 7 8 8 7 6 6 5 4 4 4 4 4 3 3 3 3 2 2 2 2 1 1 1 1
1 4 2 5 5 4 3 4 5 3 2 3 4 5 4 4 4 5 5 4 5 6 6 6 6 6 5 5 4 4 4 4 3 3 3 3 2 2 2 2 1 1 1 1
3 4 2 6 5 4 1 2 4 5 4 3 4 5 3 1 1 3 5 4 4 4 5 5 5 4 4 4 4 3 4 4 4 3 3 3 2 2 2 2 1 1 1 1
3 3 5 6 6 3 4 3 2 4 3 4 7 6 3 2 1 1 2 4 5 5 6 6 4 3 3 3 4 4 3 3 4 4 4 3 2 2 2 2 1 1 2 2
4 2 4 5 5 3 3 4 4 4 6 7 7 6 7 6 5 4 3 4 4 5 5 5 5 4 3 3 2 3 3 3 3 4 4 3 2 2 2 2 1 1 1 2
2 2 0 3 3 2 4 5 5 5 4 5 4 5 5 3 3 3 3 4 4 5 5 5 5 5 4 4 3 3 3 3 3 4 3 3 2 2 2 2 1 1 1 1
0 2 1 3 4 3 4 5 4 3 2 5 6 6 3 2 4 4 4 4 4 5 5 5 5 5 5 5 5 4 4 3 4 3 3 3 3 2 2 2 2 1 1 1
4 3 2 1 2 4 6 3 1 1 1 1 2 2 5 5 4 3 3 5 4 4 4 4 4 4 4 4 4 3 3 4 4 4 3 3 2 2 2 2 2 2 1 1
5 5 3 2 2 5 6 4 1 2 2 2 2 1 1 2 3 3 1 3 4 4 4 4 5 4 4 4 4 4 3 3 3 3 3 3 3 3 3 3 3 2 1 1
3 5 5 3 3 5 5 6 4 2 2 3 1 2 1 3 1 4 3 1 1 2 3 3 3 3 3 3 4 4 3 3 4 4 4 4 3 3 3 3 2 1 1 1
2 2 3 4 4 6 6 6 3 2 5 3 2 2 3 4 5 4 2 1 1 3 3 3 4 4 4 4 5 4 3 4 4 4 3 3 3 3 3 3 2 2 1 1
4 3 4 4 4 7 4 1 2 5 3 2 2 2 2 2 1 1 2 2 1 2 2 3 3 3 3 4 5 4 4 4 3 3 3 3 3 3 2 2 2 2 2 1
4 6 5 6 6 5 2 3 3 3 2 2 2 2 2 2 2 2 2 2 1 3 3 3 4 3 2 3 5 5 4 3 2 3 3 2 2 2 2 3 2 2 2 1
3 0 2 3 5 4 4 2 1 2 2 2 2 3 3 3 3 2 2 2 1 2 3 3 3 3 3 3 4 4 4 3 4 3 3 3 3 2 1 2 2 2 2 2
5 1 1 4 5 4 4 3 3 2 1 1 1 2 3 3 3 3 3 3 3 2 2 3 4 5 4 3 3 3 3 4 4 3 3 3 3 3 2 1 1 2 3 4
4 5 5 7 7 5 6 5 4 2 2 2 1 2 2 3 4 3 3 3 2 3 3 3 3 4 4 3 3 2 3 4 4 3 3 3 3 2 2 2 0 1 1 3
Wind_Direction
340 89 220 228 205 196 193 183 228 237 213 167 194 210 214 192 173 179 184 183 182 187 186 164 150 140 133 134 134 138 133 131 125 116 114 112 119 122 77 83 95 107 116 119
39 254 237 225 234 195 177 195 236 271 223 174 202 238 232 203 191 187 186 186 185 181 163 158 153 151 152 155 156 150 148 143 141 142 148 149 137 131 129 62 73 100 116 119
191 241 235 202 235 194 222 204 210 213 288 21 113 320 281 264 210 196 189 184 182 175 169 168 164 161 155 158 162 160 160 148 140 131 110 86 62 47 38 37 49 80 116 117
231 254 207 194 231 186 241 240 215 197 146 247 163 228 270 245 220 202 191 178 177 172 166 168 167 162 166 173 162 152 152 145 141 134 133 135 131 146 206 189 161 61 110 114
246 230 195 221 234 203 223 235 224 204 170 231 235 164 275 216 207 219 201 184 177 177 172 172 174 172 169 163 153 152 145 140 138 137 143 143 139 146 123 89 88 70 80 106
247 240 203 218 240 219 205 39 32 53 86 257 231 173 259 229 213 202 198 186 175 175 173 168 166 156 150 144 135 133 134 139 142 138 139 142 144 136 118 100 117 214 243 237
304 294 269 210 255 334 86 90 35 2 11 252 242 158 245 250 216 190 181 179 176 170 168 166 164 163 161 152 142 145 142 145 150 147 150 152 156 155 156 162 177 178 192 233
242 282 268 229 188 198 182 145 158 194 220 273 355 204 265 270 204 168 162 162 161 168 171 173 179 176 169 163 158 158 157 159 160 160 166 158 156 160 167 172 176 188 200 215
186 262 283 255 211 157 163 179 175 152 171 186 285 273 302 331 75 125 148 152 165 174 177 181 183 179 172 169 172 171 167 165 163 165 158 153 158 167 177 180 173 190 206 194
162 251 287 288 22 4 160 151 98 124 157 228 277 241 233 227 194 166 167 171 180 179 179 180 180 177 176 173 170 159 155 157 154 152 155 160 167 170 166 161 175 196 229 205
108 168 305 350 209 243 36 85 111 128 155 161 225 264 235 204 200 188 187 185 184 183 182 179 172 166 165 162 158 153 150 144 145 151 149 145 157 154 143 146 176 186 199 190
96 125 262 272 268 228 173 166 142 149 226 172 177 258 284 200 189 171 176 186 192 182 175 167 158 155 156 157 153 153 152 148 158 154 145 147 147 145 141 152 175 161 168 190
103 105 43 338 336 350 335 182 151 142 141 166 179 248 318 5 134 165 165 178 178 167 153 147 148 160 166 163 162 160 160 159 156 141 134 132 141 148 154 168 169 140 126 126
114 120 171 203 231 251 277 278 181 132 158 210 215 222 278 265 203 205 164 165 160 161 157 153 156 167 170 167 167 164 171 170 158 148 142 139 164 177 174 170 164 152 136 127
92 168 218 239 251 245 264 270 252 199 190 199 219 211 233 221 200 189 165 150 141 150 157 161 165 173 169 159 158 161 170 173 163 149 148 161 174 171 148 141 155 152 152 150
70 161 294 300 296 305 293 277 257 238 211 203 202 237 242 203 155 141 154 153 153 163 166 168 169 169 173 177 173 172 181 178 158 154 164 163 144 141 157 165 163 153 157 153
124 128 81 278 307 352 287 268 242 220 222 192 211 228 195 149 160 174 178 171 172 179 176 173 173 175 180 184 179 182 188 165 147 154 165 170 162 159 179 176 157 170 189 154
168 147 147 256 5 237 248 287 270 187 273 200 171 189 177 176 181 186 176 172 181 182 180 177 177 181 186 179 173 169 167 161 158 162 176 182 175 179 185 166 180 203 208 191
164 152 142 149 220 274 292 298 277 194 282 345 130 120 109 100 58 353 287 180 188 186 183 188 185 177 172 167 164 146 154 159 160 177 194 195 183 181 183 183 192 200 192 211
94 117 135 149 194 238 257 293 298 113 277 302 150 148 140 99 96 269 275 216 150 163 161 164 156 142 149 169 154 140 148 165 193 206 207 202 187 182 192 193 189 201 186 201
72 83 158 187 220 257 267 299 15 152 242 276 199 173 163 180 208 230 226 210 183 168 163 151 142 153 175 173 156 156 170 205 217 208 191 187 186 183 186 182 172 168 165 168
180 183 198 178 208 253 284 34 157 219 252 241 209 202 189 218 207 181 179 191 190 167 165 157 155 174 183 172 164 178 207 220 207 178 172 177 182 189 182 165 173 171 165 159
197 196 193 193 216 251 270 216 221 198 211 231 222 244 220 207 207 211 205 196 204 190 181 174 170 177 194 194 182 193 215 203 173 164 177 186 184 193 178 172 175 170 169 174
285 251 165 245 264 274 282 276 262 225 223 242 230 225 208 205 201 202 194 209 216 215 186 176 168 181 213 223 210 200 199 183 165 171 185 185 180 183 174 171 172 174 188 197
249 255 240 256 271 296 289 273 272 288 298 307 306 225 193 173 206 203 205 216 222 226 209 188 187 200 215 212 216 211 188 171 171 178 188 189 186 183 177 179 190 193 206 206
226 205 208 239 241 228 253 259 265 258 252 233 237 306 259 201 200 203 215 224 221 224 209 209 208 206 211 204 210 213 190 176 174 184 196 191 181 186 181 178 273 278 242 236
Height
1508 1514 1518 1515 1513 1514 1515 1520 1523 1518 1511 1515 1519 1519 1517 1517 1518 1519 1519 1520 1521 1523 1525 1526 1528 1529 1530 1531 1531 1532 1532 1532 1532 1532 1532 1532 1532 1532 1532 1532 1532 1532 1532 1532
1514 1515 1509 1507 1508 1510 1513 1520 1521 1516 1511 1514 1519 1519 1515 1515 1515 1515 1516 1518 1519 1521 1523 1525 1526 1527 1528 1529 1530 1531 1531 1531 1531 1531 1531 1532 1532 1532 1532 1532 1531 1531 1532 1532
1514 1510 1504 1506 1509 1511 1513 1516 1517 1517 1514 1514 1519 1525 1519 1514 1513 1514 1515 1516 1517 1519 1521 1522 1524 1525 1526 1527 1528 1529 1530 1530 1530 1531 1531 1531 1531 1531 1531 1531 1530 1531 1531 1531
1509 1504 1504 1507 1509 1509 1516 1507 1508 1512 1521 1528 1523 1537 1523 1517 1515 1513 1513 1514 1515 1517 1519 1520 1521 1523 1524 1525 1526 1527 1528 1529 1529 1530 1529 1529 1529 1529 1530 1530 1530 1530 1530 1530
1508 1502 1504 1506 1505 1504 1507 1502 1505 1510 1518 1526 1525 1534 1528 1517 1518 1514 1512 1512 1514 1515 1517 1518 1519 1521 1522 1524 1525 1526 1527 1527 1528 1528 1528 1528 1528 1528 1528 1529 1528 1528 1528 1528
1503 1499 1499 1500 1498 1499 1500 1504 1509 1516 1524 1536 1526 1532 1530 1520 1514 1511 1510 1511 1512 1513 1515 1517 1518 1519 1521 1522 1523 1524 1525 1525 1526 1526 1526 1526 1526 1526 1527 1527 1527 1527 1527 1527
1507 1501 1497 1496 1500 1500 1503 1519 1534 1536 1542 1538 1522 1526 1525 1509 1505 1506 1507 1508 1510 1512 1514 1515 1517 1518 1519 1520 1521 1522 1523 1523 1524 1524 1525 1525 1525 1525 1525 1525 1525 1525 1525 1525
1517 1516 1500 1496 1499 1503 1505 1515 1534 1543 1544 1537 1525 1527 1518 1504 1502 1503 1505 1507 1509 1511 1512 1513 1515 1516 1517 1518 1519 1520 1521 1521 1522 1523 1523 1523 1523 1523 1523 1523 1523 1523 1523 1523
1516 1514 1497 1494 1493 1497 1505 1511 1512 1527 1530 1537 1532 1523 1512 1504 1504 1504 1505 1506 1508 1509 1511 1512 1513 1514 1516 1517 1518 1518 1519 1520 1520 1521 1521 1521 1521 1521 1522 1522 1522 1522 1522 1522
1506 1512 1502 1495 1494 1495 1498 1503 1517 1526 1536 1542 1534 1527 1523 1511 1508 1506 1506 1506 1507 1508 1509 1510 1511 1513 1514 1516 1516 1517 1517 1518 1519 1519 1519 1519 1520 1520 1520 1520 1520 1520 1520 1520
1502 1511 1508 1502 1502 1503 1502 1505 1512 1523 1527 1538 1541 1532 1508 1506 1505 1505 1505 1505 1506 1506 1507 1508 1510 1511 1513 1514 1515 1516 1516 1517 1517 1517 1518 1518 1518 1518 1518 1518 1518 1518 1519 1518
1504 1512 1516 1507 1498 1495 1498 1503 1511 1524 1527 1529 1534 1529 1502 1501 1501 1502 1503 1504 1505 1505 1506 1507 1509 1510 1511 1512 1513 1514 1515 1515 1516 1516 1516 1516 1516 1516 1517 1517 1517 1517 1517 1517
1503 1513 1522 1518 1511 1502 1500 1500 1504 1512 1521 1528 1533 1525 1502 1501 1501 1501 1502 1502 1503 1504 1505 1506 1507 1509 1510 1511 1512 1512 1513 1514 1514 1514 1514 1514 1515 1515 1515 1515 1515 1515 1515 1515
1501 1511 1519 1522 1516 1508 1506 1502 1501 1509 1521 1523 1520 1514 1506 1503 1502 1501 1501 1501 1502 1503 1503 1505 1506 1507 1508 1509 1510 1511 1511 1512 1512 1513 1513 1513 1513 1513 1513 1513 1513 1514 1513 1513
1501 1510 1508 1507 1503 1502 1503 1501 1500 1503 1508 1514 1511 1509 1504 1501 1500 1500 1500 1501 1501 1502 1503 1503 1504 1506 1507 1507 1508 1509 1509 1510 1511 1511 1510 1511 1511 1511 1511 1511 1512 1512 1512 1511
1503 1507 1507 1506 1501 1501 1502 1500 1499 1499 1500 1504 1504 1504 1498 1498 1498 1499 1500 1500 1500 1500 1501 1502 1503 1504 1505 1505 1506 1507 1507 1508 1508 1508 1508 1509 1509 1509 1509 1509 1509 1509 1509 1509
1506 1508 1512 1514 1505 1503 1508 1500 1497 1497 1496 1498 1503 1500 1496 1497 1497 1497 1498 1498 1499 1499 1500 1501 1501 1502 1503 1504 1504 1504 1505 1506 1506 1506 1506 1506 1506 1507 1507 1507 1507 1507 1507 1507
1505 1508 1515 1516 1511 1516 1506 1494 1493 1494 1494 1493 1494 1494 1494 1494 1495 1495 1496 1496 1497 1498 1498 1499 1499 1500 1501 1502 1502 1503 1503 1503 1503 1504 1504 1504 1504 1504 1504 1504 1504 1505 1505 1505
1498 1505 1514 1519 1518 1512 1502 1493 1492 1494 1496 1494 1493 1494 1494 1494 1494 1495 1495 1495 1495 1496 1496 1497 1497 1498 1499 1500 1500 1501 1500 1500 1501 1501 1501 1501 1501 1501 1501 1501 1501 1502 1502 1502
1497 1501 1511 1517 1517 1517 1504 1492 1489 1492 1498 1493 1492 1493 1493 1493 1499 1497 1494 1494 1493 1494 1494 1495 1495 1496 1496 1497 1498 1498 1498 1498 1498 1498 1498 1499 1498 1498 1498 1498 1499 1499 1499 1499
1505 1508 1512 1515 1516 1508 1497 1491 1490 1502 1501 1492 1491 1491 1491 1492 1493 1493 1492 1492 1492 1492 1492 1493 1493 1493 1494 1495 1495 1495 1495 1495 1495 1496 1496 1496 1496 1496 1496 1496 1496 1496 1496 1496
1506 1510 1511 1513 1515 1510 1492 1491 1495 1495 1491 1490 1489 1489 1489 1490 1489 1489 1489 1490 1489 1489 1490 1490 1491 1491 1492 1492 1492 1492 1492 1493 1493 1493 1493 1493 1493 1493 1493 1493 1493 1494 1493 1493
1501 1501 1502 1503 1503 1494 1491 1490 1490 1490 1489 1488 1488 1487 1487 1488 1487 1487 1487 1487 1487 1487 1487 1488 1488 1488 1489 1489 1489 1489 1489 1490 1490 1490 1490 1490 1490 1490 1490 1490 1490 1490 1490 1490
1498 1495 1497 1497 1493 1490 1489 1488 1488 1488 1487 1487 1486 1486 1485 1485 1484 1484 1484 1485 1485 1485 1485 1485 1485 1485 1486 1486 1486 1486 1487 1487 1487 1487 1487 1487 1487 1487 1487 1488 1488 1487 1487 1487
1496 1495 1496 1495 1491 1489 1487 1487 1486 1485 1485 1484 1483 1483 1482 1482 1482 1482 1482 1482 1482 1482 1482 1482 1482 1482 1482 1482 1482 1483 1483 1483 1483 1483 1483 1484 1484 1484 1484 1485 1485 1485 1485 1485
1491 1492 1494 1492 1487 1487 1485 1484 1484 1483 1482 1481 1480 1480 1480 1479 1479 1479 1479 1479 1479 1479 1479 1479 1479 1479 1479 1479 1479 1479 1480 1480 1480 1480 1480 1480 1480 1481 1481 1481 1482 1482 1482 1482